SES-7 (PROTOSTAR 2)

Last updated on Thu Jul 03 2025 00:02:45 GMT+0000 (Coordinated Universal Time)

1 34941U 09027A 25183.62414837 -.00000337 00000+0 00000+0 0 9995 2 34941 0.0153 37.0502 0001126 150.5029 66.2774 1.00270772 59126
UTC large
Height (km)
Speed (km/s)
/
Latitude / Longitude
Inclination (degrees)
Orbital Period (minutes)
Azimuth
Elevation
Range (km)
Doppler Factor

Next 0 passes for location: London (51.5072 / 0.1276)

Sorry there are no passes over London.